Location: El Carrer d�Abaix
(41.5797°N, 2.1791°E)
Time: 03:09:08
(UTC+00:00)

Cosmos 1777 Rocket - Pass Details

Date: 06 June 2020
Orbit: 758 x 776 km, 74.0° (Epoch: 04 July)

Event Time Altitude Azimuth Distance (km) Brightness Sun altitude
Rises 22:31:20 0° 342° (NNW) 3,239 8.7 -23.1°
Reaches altitude 10° 22:33:44 10° 345° (NNW) 2,312 7.6 -23.3°
Maximum altitude 22:38:58 70° 69° (ENE) 820 4.0 -23.6°
Enters shadow 22:39:52 57° 123° (ESE) 899 4.0 -23.6°
